sat.trackr.live / text

‹ back to catalog

STARLINK-36708

NORAD 67713 · 2026-025W

PAYLOAD ACTIVE UNKNOWN

§ Identity

Operator
Country
US
Launch date
2026-02-07
Launch site
AFWTR
Launch vehicle
Mass (kg)
RCS (m²)

Purposes: comms

External: N2YO · Heavens-Above · Gunter

§ Orbital elements

Epoch: 2026-09-19T22:18:36.280512Z

Period
93.91 min
Inclination
97.2843°
Eccentricity
0.0001106
Mean motion
15.33447664 rev/d
Perigee alt
464.8 km
Apogee alt
466.3 km
Semi-major
6,843.7 km
B*
4.9032e-4
RAAN
12.0036°
Arg perigee
96.5424°
Mean anomaly
263.5945°
Rev number
3,572

§ Raw data

STARLINK-367081 67713U 26025W   26262.92958658  .00015789  00000+0  49032-3 0  99992 67713  97.2843  12.0036 0001106  96.5424 263.5945 15.33447664 35723

JSON: /api/v1/satellites/67713 · /tle

For live sub-satellite position, see the globe view (requires WebGL).

§ Visibility from observer

Set your observer location to see the next 7 days of passes ≥ 10°. The values pass through the URL so the page stays shareable.

No JS? Fill the form by hand. The geolocation button needs JavaScript.